{"data":{"norad_id":68687,"intl_designator":"2026-078A","name":"HJS-8A","alt_names":[],"object_type":"PAYLOAD","status":"ACTIVE","operator":null,"country":"PRC","launch_date":"2026-04-11","launch_site_code":"SCSLA","launch_vehicle":null,"mission":null,"orbit_class":"UNKNOWN","rcs_meters":null,"size_class":null,"mass_kg":null,"dimensions":null,"purposes":[],"wikipedia_slug":null,"has_3d_model":false,"image_url":null,"decayed_at":null,"tle_current":{"epoch":"2026-05-08T06:11:58.586208Z","epoch_age_seconds":1525569,"freshness":"OLD","line1":"1 68687U 26078A   26128.25831697 -.00430441  00000+0 -63622+0 0  9993","line2":"2 68687  86.4957 296.2001 0001122  17.6225 342.4966 13.56682030  3646","mean_motion":13.5668203,"eccentricity":0.0001122,"inclination_deg":86.4957,"raan_deg":296.2001,"arg_perigee_deg":17.6225,"mean_anomaly_deg":342.4966,"bstar":-0.63622,"rev_number":364,"period_min":106.14130416395,"perigee_km":1046.9417200853,"apogee_km":1048.6080947174,"semimajor_km":7425.9119074014,"source":"CELESTRAK","updated_at":"2026-05-25T13:38:08.021735Z"}}}